This is the latest recevied weather packets stored in our database for station/object KC5TIL-3. If no packets are shown the sender has not sent any weather packets the latest 10 day(s).
| Time | Temp. | Humidity | Pressure | Rain* | Wind** | Luminosity | Snow |
|---|---|---|---|---|---|---|---|
| 1787770786 | 31.67° C | 26% | 1012.8 hPa | 0 mm | 1.34 m/s, 289° | - | - |
| 1787770484 | 31.67° C | 26% | 1012.8 hPa | 0 mm | 2.68 m/s, 276° | - | - |
| 1787770186 | 31.67° C | 26% | 1012.8 hPa | 0 mm | 1.79 m/s, 286° | - | - |
| 1787769888 | 31.67° C | 26% | 1012.8 hPa | 0 mm | 1.79 m/s, 292° | - | - |
| 1787769586 | 31.67° C | 27% | 1012.8 hPa | 0 mm | 0 m/s | - | - |
| 1787769288 | 31.67° C | 27% | 1012.8 hPa | 0 mm | 0 m/s | - | - |
| 1787768990 | 31.11° C | 27% | 1012.8 hPa | 0 mm | 1.79 m/s, 280° | - | - |
| 1787768689 | 31.67° C | 27% | 1012.8 hPa | 0 mm | 1.34 m/s, 276° | - | - |
| 1787768391 | 31.67° C | 27% | 1012.8 hPa | 0 mm | 1.79 m/s, 287° | - | - |
| 1787768092 | 31.11° C | 27% | 1012.8 hPa | 0 mm | 1.79 m/s, 295° | - | - |
| 1787767791 | 31.11° C | 28% | 1012.8 hPa | 0 mm | 3.13 m/s, 288° | - | - |
| 1787767493 | 31.11° C | 27% | 1012.8 hPa | 0 mm | 1.79 m/s, 351° | - | - |
| 1787767195 | 31.67° C | 27% | 1012.8 hPa | 0 mm | 2.68 m/s, 327° | - | - |
| 1787766893 | 31.67° C | 27% | 1012.8 hPa | 0 mm | 2.24 m/s, 290° | - | - |
| 1787766595 | 31.67° C | 27% | 1012.8 hPa | 0 mm | 1.79 m/s, 308° | - | - |
| 1787766297 | 31.67° C | 27% | 1012.8 hPa | 0 mm | 1.79 m/s, 278° | - | - |
| 1787765996 | 31.67° C | 25% | 1012.8 hPa | 0 mm | 1.79 m/s, 293° | - | - |
| 1787765697 | 31.67° C | 25% | 1012.8 hPa | 0 mm | 2.68 m/s, 254° | - | - |
| 1787765399 | 31.67° C | 25% | 1012.8 hPa | 0 mm | 2.68 m/s, 269° | - | - |
| 1787765098 | 31.67° C | 25% | 1012.8 hPa | 0 mm | 3.13 m/s, 310° | - | - |
| 1787764795 | 31.67° C | 24% | 1012.8 hPa | 0 mm | 1.79 m/s, 337° | - | - |
| 1787764487 | 31.67° C | 24% | 1013.8 hPa | 0 mm | 2.24 m/s, 290° | - | - |
| 1787763887 | 31.67° C | 25% | 1013.8 hPa | 0 mm | 3.13 m/s, 287° | - | - |
| 1787763584 | 32.22° C | 23% | 1012.8 hPa | 0 mm | 1.79 m/s, 297° | - | - |
| 1787763278 | 32.22° C | 24% | 1012.8 hPa | 0 mm | 0 m/s | - | - |
* Rain latest hour (hover to see other rain measurements)
** Current wind speed in m/s (hover to see current wind gust speed)